Regional Weather Roundup
Issued by NWS

Home | Current Version | Previous Version | Graphics & Text | Print | Product List | Glossary On
Versions: 1 2 3 4 5 6 7 8 9 10 11 12 13 14 15 16 17 18 19 20 21 22 23 24 25 26 27 28 29 30 31 32 33 34 35 36 37 38 39 40 41 42 43 44 45 46 47 48 49 50
000
ASUS43 KLMK 270802
RWRKY
KENTUCKY REGIONAL WEATHER ROUNDUP
NATIONAL WEATHER SERVICE LOUISVILLE KY
300 AM EST THU NOV 27 2014

NOTE "FAIR" INDICATES FEW OR NO CLOUDS BELOW 12,000 FEET
WITH NO SIGNIFICANT WEATHER AND/OR OBSTRUCTIONS TO VISIBILITY.

KYZ001>023-026-027-061>063-070>075-270900-
WESTERN AND SOUTH CENTRAL KENTUCKY

CITY           SKY/WX    TMP DP  RH WIND       PRES   REMARKS
PADUCAH        CLOUDY    37  32  82 NW9       30.19R WCI  30
HENDERSON      CLOUDY    34  30  86 NW8       30.18R WCI  27
OWENSBORO      LGT SNOW  33  32  96 MISG      30.16R FOG
HOPKINSVILLE   CLOUDY    36  36 100 NW14      30.15R WCI  27
BOWLING GREEN  CLOUDY    37  33  85 NW9       30.10R WCI  30
GLASGOW        NOT AVBL
$$

KYZ024-025-028>034-038-045-046-053-270900-
NORTH CENTRAL KENTUCKY

CITY           SKY/WX    TMP DP  RH WIND       PRES   REMARKS
LOUISVILLE/SDF LGT SNOW  33  31  92 N12       30.11R FOG     WCI  24
LOUISVILLE/LOU LGT SNOW  33  31  92 NW7       30.11R FOG     WCI  27
FORT KNOX      LGT SNOW  33  31  96 NW8       30.09R FOG     WCI  25
$$

KYZ035>037-039>044-047>052-055>060-089>105-270900-
NORTHEAST KENTUCKY

CITY           SKY/WX    TMP DP  RH WIND       PRES   REMARKS
LEXINGTON      CLOUDY    33  29  85 N8        30.05R WCI  26
COVINGTON      CLOUDY    29  21  72 NW9       30.08R WCI  20
FRANKFORT      CLOUDY    33  26  75 N6        30.06R WCI  28
$$

KYZ054-064>069-076>088-106>120-270900-
SOUTHEAST KENTUCKY

CITY           SKY/WX    TMP DP  RH WIND       PRES   REMARKS
JACKSON        CLOUDY    35  28  75 CALM      29.99R
LONDON         LGT SNOW  35  32  88 NW3       30.01R FOG
SOMERSET       NOT AVBL
MIDDLESBORO    NOT AVBL
MONTICELLO     LGT SNOW  35  35 100 SW6       30.06R FOG     WCI  30
$$



USA.gov is the U.S. government's official web portal to all federal, state and local government web resources and services.